[[{"header":{"parameterUnit":"m.s-1","parameterCategory":2,"la1":30.2991,"la2":30.254,"lo1":-89.0895,"lo2":-89.0444,"dy":0.0017,"dx":0.0017,"nx":28,"ny":28,"refTime":"2024-12-11T09:00:00:Z","depth":"0","parameterNumber":2,"parameterNumberName":"U-component_of_CURRENTS"},"data":[0,0,0,0,0,0,0,0,0,0,0,0,0,0,0,0,0,0,0,0,0,0,0,0,0,0,0,0,0,0,0,0,0,0,0,0,0,0,0,0,0,0,0,0,0,0,0,0,0,0,0,0,0,0,0,0,0,0,0.428,0.4281,0,0.4337,0.4337,0.4337,0.4303,0.4302,0.4301,0.43,0.4187,0.4185,0.4184,0,0,0,0,0,0,0,0,0,0,0,0,0,0.4192,0.4193,0.428,0.4281,0.4282,0.4337,0.4337,0.4337,0.4303,0.4302,0.4301,0.4299,0.4188,0.4186,0.4183,0,0,0,0,0,0,0,0,0,0,0,0,0,0.4233,0.4193,0.428,0.4275,0.4276,0.4337,0.4337,0.4337,0.4304,0.4302,0.43,0.4299,0.4189,0.4186,0.4183,0.4201,0,0,0.4174,0.4173,0,0,0,0,0,0,0,0,0.4231,0.4235,0.4275,0.4276,0.4277,0.4315,0.4265,0.4285,0.4304,0.4288,0.43,0.4298,0.4219,0.4213,0.4224,0.4196,0.4191,0.4174,0.4172,0.4171,0.417,0,0,0,0,0,0,0,0.4228,0.4233,0.4297,0.4276,0.4278,0.4288,0.4291,0.4269,0.4256,0.4289,0.4288,0.4303,0.4217,0.4227,0.422,0.419,0.4174,0.4172,0.417,0.4169,0.4266,0.4271,0,0,0,0,0,0,0.423,0.4231,0.4296,0.43,0.4254,0.4291,0.4294,0.4301,0.426,0.4255,0.4304,0.4301,0.4232,0.4224,0.4216,0.4278,0.4171,0.4169,0.4167,0.4262,0.4267,0.4272,0,0,0,0,0,0,0.4228,0.4235,0.4294,0.4271,0.4279,0.4295,0.4302,0.4303,0.4307,0.4274,0.4264,0.4307,0.4231,0.422,0.423,0.4271,0.4167,0.4165,0.4257,0.4264,0.427,0.4373,0,0,0,0,0,0,0.4225,0.4234,0.4236,0.4271,0.4281,0.4326,0.4305,0.4306,0.4321,0.4317,0.4273,0.4262,0.4228,0.4235,0.4227,0.4265,0.4163,0.4252,0.426,0.4268,0.4364,0.4382,0.4398,0,0,0,0,0,0.4221,0.4241,0.4236,0.4244,0.4284,0.4327,0.4333,0.4335,0.4323,0.433,0.4328,0.4263,0.4281,0.4236,0.4226,0.4264,0.4248,0.4258,0.4267,0.4357,0.4379,0.4397,0,0,0,0,0,0,0.4211,0.4241,0.4236,0.4263,0.4289,0.4323,0.4357,0.4341,0.4348,0.4347,0.4301,0.4292,0.4324,0.4293,0.4244,0.4327,0.426,0.4268,0.4332,0.4352,0.4369,0.4357,0.416,0,0,0,0,0,0.4211,0.422,0.4258,0.4275,0.4312,0.4332,0.435,0.4343,0.436,0.436,0.4346,0.4347,0.4361,0.4352,0.4358,0.4384,0.4359,0.4414,0.443,0.4444,0.4436,0.4479,0.4497,0.4304,0.4304,0.4303,0,0,0.421,0.4229,0.4233,0.4272,0.4314,0.4357,0.4339,0.4378,0.4396,0.4346,0.4389,0.4398,0.4386,0.4434,0.4445,0.4403,0.449,0.4456,0.4467,0.4451,0.449,0.4508,0.4524,0.431,0.4309,0.4308,0,0,0.4234,0.425,0.428,0.4315,0.4367,0.4378,0.4389,0.4436,0.4448,0.4473,0.4477,0.4518,0.451,0.4542,0.4544,0.4658,0.4583,0.4665,0.472,0.4763,0.4778,0.479,0.4779,0.479,0.4664,0.4665,0.4665,0,0.4236,0.4259,0.4295,0.4351,0.4379,0.4391,0.4433,0.4462,0.4491,0.4513,0.4493,0.4572,0.4564,0.4639,0.4692,0.4689,0.4681,0.4633,0.478,0.4792,0.4803,0.4789,0.4799,0.4671,0.467,0.4669,0.4669,0,0.4281,0.4309,0.4352,0.4405,0.4446,0.4479,0.4534,0.4561,0.4566,0.4586,0.4662,0.4692,0.4727,0.4759,0.4747,0.4849,0.4808,0.4798,0.4714,0.4828,0.4807,0.4816,0.468,0.4677,0.4676,0.4674,0,0,0.4259,0.4352,0.4364,0.4394,0.4464,0.45,0.4561,0.4608,0.4634,0.469,0.4744,0.4824,0.4848,0.486,0.4887,0.4933,0.5014,0.4901,0.49,0.4862,0.5072,0.497,0.4969,0.5027,0.5029,0.5031,0.5022,0,0.4274,0.4361,0.4391,0.4456,0.4521,0.4548,0.4588,0.4638,0.4675,0.4738,0.4811,0.4871,0.4886,0.4912,0.4976,0.5009,0.5043,0.5014,0.499,0.4988,0.4862,0.4979,0.4961,0.4946,0.503,0.5031,0.5032,0,0.4296,0.4354,0.4417,0.448,0.4509,0.4527,0.4587,0.4619,0.4716,0.475,0.4846,0.4903,0.5018,0.5001,0.5105,0.5084,0.5085,0.5098,0.5098,0.4966,0.4904,0.4851,0.4957,0.4979,0.5045,0.5044,0.5043,0,0.4259,0.4361,0.439,0.442,0.4501,0.4513,0.4537,0.4621,0.4662,0.4771,0.4826,0.4949,0.5018,0.5071,0.5119,0.5114,0.5196,0.5185,0.5089,0.5079,0.5038,0.5021,0.5136,0.524,0.524,0.524,0.524,0,0.4235,0.427,0.4373,0.4388,0.4386,0.4493,0.4491,0.4526,0.4648,0.4685,0.4836,0.4906,0.5043,0.5117,0.5134,0.5136,0.5206,0.5108,0.5087,0.5074,0.5061,0.5051,0.5039,0.524,0.524,0.524,0.524,0,0.4157,0.423,0.4258,0.4344,0.4352,0.4351,0.4418,0.4446,0.4578,0.4644,0.4692,0.4899,0.4971,0.5072,0.5144,0.514,0.5052,0.512,0.5068,0.504,0.4942,0.4935,0.4681,0.4526,0.5014,0.5011,0.501,0,0.4094,0.4111,0.417,0.4148,0.416,0.4191,0.4191,0.4344,0.4396,0.4607,0.4637,0.4802,0.4867,0.497,0.5011,0.5024,0.4934,0.4971,0.4964,0.4945,0.4924,0.4683,0.4554,0.4955,0.4953,0.4951,0.495,0,0.3937,0.3961,0.3964,0.3958,0.3951,0.3951,0.4,0.4052,0.4226,0.4339,0.4454,0.4556,0.4734,0.479,0.4863,0.4871,0.4822,0.4926,0.4965,0.493,0.4622,0.446,0.4915,0.4934,0.4935,0.4936,0.4937,0.4938,0.3752,0.3712,0.3723,0.3703,0.3704,0.3696,0.367,0.3786,0.3858,0.4026,0.4197,0.4361,0.4657,0.4788,0.4728,0.4789,0.4636,0.479,0.4792,0.4554,0.4375,0.4745,0.4698,0.4699,0.4699,0.4699,0.4699,0,0.3503,0.3499,0.347,0.3437,0.3401,0.3481,0.3518,0.3524,0.3561,0.3813,0.3935,0.4294,0.4479,0.4678,0.4887,0.4787,0.4516,0.4702,0.4475,0.4357,0.4807,0.4788,0.4689,0.4689,0.4689,0.4689,0.4689,0.4689,0.3356,0.3249,0.3279,0.3153,0.3151,0.3084,0.3089,0.3137,0.3308,0.3523,0.3776,0.4026,0.4604,0.5021,0.5081,0.4926,0.4593,0.4387,0.4253,0.4793,0.4805,0.4816,0.4801,0.4707,0.4707,0.3688,0.3682,0.3677]},{"header":{"parameterUnit":"m.s-1","parameterCategory":2,"la1":30.2991,"la2":30.254,"lo1":-89.0895,"lo2":-89.0444,"dy":0.0017,"dx":0.0017,"nx":28,"ny":28,"refTime":"2024-12-11T09:00:00:Z","depth":"0","parameterNumber":3,"parameterNumberName":"V-component_of_CURRENTS"},"data":[0,0,0,0,0,0,0,0,0,0,0,0,0,0,0,0,0,0,0,0,0,0,0,0,0,0,0,0,0,0,0,0,0,0,0,0,0,0,0,0,0,0,0,0,0,0,0,0,0,0,0,0,0,0,0,0,0,0,-0.0285,-0.0285,0,-0.0385,-0.0387,-0.0388,-0.0441,-0.0441,-0.044,-0.044,-0.0531,-0.0533,-0.0536,0,0,0,0,0,0,0,0,0,0,0,0,0,-0.0262,-0.0262,-0.0285,-0.0285,-0.0286,-0.0385,-0.0387,-0.0389,-0.0441,-0.0441,-0.044,-0.044,-0.053,-0.0533,-0.0536,0,0,0,0,0,0,0,0,0,0,0,0,0,-0.0312,-0.0262,-0.0284,-0.0321,-0.0325,-0.0385,-0.0387,-0.0389,-0.0441,-0.0441,-0.044,-0.044,-0.0529,-0.0533,-0.0537,-0.0572,0,0,-0.0549,-0.0551,0,0,0,0,0,0,0,0,-0.0309,-0.0313,-0.0315,-0.0319,-0.0323,-0.0396,-0.0412,-0.0448,-0.0441,-0.0402,-0.044,-0.044,-0.0482,-0.049,-0.0517,-0.0576,-0.058,-0.0549,-0.0552,-0.0554,-0.0555,0,0,0,0,0,0,0,-0.0305,-0.031,-0.0329,-0.0316,-0.0321,-0.0374,-0.038,-0.042,-0.0447,-0.0405,-0.0408,-0.0412,-0.0485,-0.0513,-0.0519,-0.0581,-0.0549,-0.0553,-0.0555,-0.0557,-0.0651,-0.0651,0,0,0,0,0,0,-0.0278,-0.0306,-0.0326,-0.0332,-0.0309,-0.0374,-0.0381,-0.0377,-0.0447,-0.0456,-0.0413,-0.0414,-0.0506,-0.0514,-0.0522,-0.0508,-0.0554,-0.0557,-0.056,-0.0651,-0.0651,-0.0651,0,0,0,0,0,0,-0.0277,-0.0278,-0.0322,-0.0318,-0.0327,-0.0374,-0.0369,-0.0379,-0.0393,-0.0452,-0.0461,-0.0414,-0.0506,-0.0517,-0.0557,-0.0514,-0.0559,-0.0563,-0.0651,-0.0651,-0.0651,-0.0517,0,0,0,0,0,0,-0.0276,-0.0277,-0.0272,-0.0316,-0.0326,-0.0331,-0.037,-0.0381,-0.0395,-0.0398,-0.0456,-0.0465,-0.0506,-0.055,-0.0561,-0.052,-0.0566,-0.0651,-0.0651,-0.0651,-0.0521,-0.0512,-0.0505,0,0,0,0,0,-0.0274,-0.0252,-0.0271,-0.0274,-0.0314,-0.0329,-0.0339,-0.0376,-0.0395,-0.039,-0.0446,-0.0463,-0.0558,-0.0554,-0.0566,-0.0525,-0.0651,-0.0651,-0.0651,-0.0525,-0.0514,-0.0505,0,0,0,0,0,0,-0.0236,-0.0257,-0.0278,-0.0263,-0.0286,-0.0335,-0.0352,-0.0365,-0.0408,-0.0418,-0.0473,-0.0486,-0.0502,-0.0547,-0.0541,-0.0558,-0.0603,-0.0606,-0.0503,-0.0493,-0.0485,-0.0439,-0.057,0,0,0,0,0,-0.0226,-0.0204,-0.0248,-0.0226,-0.0258,-0.0305,-0.032,-0.0332,-0.0373,-0.0391,-0.0435,-0.0485,-0.0516,-0.053,-0.0574,-0.0588,-0.0626,-0.057,-0.0562,-0.0554,-0.0528,-0.058,-0.0572,-0.0652,-0.0652,-0.0652,0,0,-0.0193,-0.0207,-0.019,-0.0215,-0.026,-0.026,-0.0315,-0.0324,-0.0296,-0.0395,-0.0399,-0.046,-0.0518,-0.0531,-0.054,-0.0557,-0.0552,-0.0554,-0.0547,-0.0524,-0.0579,-0.0571,-0.0564,-0.0652,-0.0652,-0.0652,0,0,-0.013,-0.0156,-0.0138,-0.0157,-0.0197,-0.0219,-0.0212,-0.0264,-0.0275,-0.0283,-0.0348,-0.0385,-0.0438,-0.0468,-0.0487,-0.0463,-0.0511,-0.0479,-0.0388,-0.0438,-0.0431,-0.0425,-0.0453,-0.045,-0.0468,-0.0468,-0.0467,0,-0.0102,-0.0076,-0.0131,-0.0134,-0.0132,-0.019,-0.0169,-0.0185,-0.0222,-0.0226,-0.0261,-0.0345,-0.0396,-0.0398,-0.039,-0.0436,-0.0475,-0.0412,-0.0423,-0.0419,-0.0415,-0.0445,-0.0444,-0.0461,-0.0462,-0.0463,-0.0463,0,-0.0036,-0.0021,-0.0021,-0.0028,-0.0034,-0.0019,-0.0053,-0.005,-0.0071,-0.009,-0.0112,-0.0203,-0.0244,-0.0267,-0.0315,-0.031,-0.035,-0.0408,-0.0436,-0.0398,-0.0433,-0.0434,-0.0452,-0.0454,-0.0456,-0.0458,0,0,0.0044,0.0032,0.0035,0.0057,0.0027,0.0046,0.0072,0.0082,0.0118,0.0059,0.0085,0.0014,-0.0053,-0.0082,-0.0161,-0.0201,-0.021,-0.028,-0.0286,-0.0283,-0.0307,-0.0335,-0.034,-0.0277,-0.0277,-0.0276,-0.0336,0,0.0108,0.0155,0.0134,0.0212,0.0221,0.0194,0.0238,0.0247,0.0225,0.023,0.0141,0.0119,0.0024,-0.0,-0.0053,-0.0175,-0.021,-0.0187,-0.0365,-0.0369,-0.0379,-0.0341,-0.0326,-0.0379,-0.0338,-0.0338,-0.0339,0,0.0171,0.0199,0.0271,0.0336,0.0335,0.0386,0.0443,0.0473,0.0451,0.0425,0.0372,0.0289,0.0229,0.0129,-0.0026,-0.0011,-0.0134,-0.0234,-0.024,-0.0309,-0.0399,-0.0417,-0.0384,-0.0632,-0.0342,-0.0341,-0.0341,0,0.0262,0.0309,0.0388,0.0405,0.0451,0.0498,0.0526,0.0529,0.057,0.0531,0.0546,0.0436,0.0392,0.0227,0.0026,-0.0003,-0.0153,-0.0227,-0.0362,-0.0366,-0.0406,-0.0413,-0.0611,-0.0329,-0.0329,-0.0328,-0.0328,0,0.0353,0.0417,0.0442,0.049,0.061,0.0588,0.0695,0.0706,0.0714,0.0777,0.0643,0.0661,0.0411,0.0291,0.0087,-0.0126,-0.0109,-0.0322,-0.0378,-0.036,-0.0362,-0.0625,-0.0801,-0.0331,-0.033,-0.033,-0.0329,0,0.0451,0.0459,0.0563,0.0628,0.0656,0.074,0.0815,0.0884,0.0868,0.0943,0.094,0.0837,0.0679,0.0431,0.0166,-0.0029,-0.0407,-0.0333,-0.028,-0.0329,-0.0686,-0.0855,-0.113,-0.1276,-0.0478,-0.0479,-0.0479,0,0.0514,0.0571,0.0676,0.0742,0.0778,0.0873,0.0943,0.0961,0.103,0.1061,0.1117,0.0993,0.0937,0.0545,0.0169,-0.0173,-0.0445,-0.0397,-0.0453,-0.0682,-0.0913,-0.1033,-0.1146,-0.0453,-0.0454,-0.0454,-0.0454,0,0.0638,0.067,0.0754,0.0875,0.0968,0.1078,0.1169,0.1253,0.1286,0.1353,0.1408,0.1366,0.1003,0.0676,0.0194,-0.0083,-0.0604,-0.0417,-0.0679,-0.0919,-0.104,-0.1214,-0.043,-0.0458,-0.0458,-0.0458,-0.0457,-0.0457,0.0731,0.0812,0.0899,0.1026,0.1129,0.1251,0.1355,0.1462,0.1593,0.1724,0.1654,0.1684,0.1184,0.0531,0.0098,-0.0626,-0.0671,-0.0827,-0.1011,-0.1107,-0.1263,-0.047,-0.0555,-0.0555,-0.0555,-0.0555,-0.0555,0,0.082,0.0899,0.1029,0.1167,0.1285,0.1317,0.1489,0.1604,0.1778,0.1948,0.2009,0.1842,0.1177,0.0497,-0.047,-0.1054,-0.1314,-0.1403,-0.158,-0.1668,-0.0967,-0.0978,-0.1129,-0.1129,-0.1129,-0.1128,-0.1128,-0.1128,0.0862,0.0992,0.1053,0.1257,0.1355,0.1518,0.1622,0.1815,0.1991,0.2231,0.2339,0.2355,0.1899,0.0031,-0.1239,-0.1602,-0.2086,-0.2204,-0.2441,-0.1968,-0.1928,-0.189,-0.1938,-0.2288,-0.229,-0.3039,-0.3047,-0.3052]}],[{"header":{"parameterUnit":"m.s-1","parameterCategory":2,"la1":30.2991,"la2":30.254,"lo1":-89.0895,"lo2":-89.0444,"dy":0.0017,"dx":0.0017,"nx":28,"ny":28,"refTime":"2024-12-11T09:00:00:Z","depth":"2","parameterNumber":2,"parameterNumberName":"U-component_of_CURRENTS"},"data":[0,0,0,0,0,0,0,0,0,0,0,0,0,0,0,0,0,0,0,0,0,0,0,0,0,0,0,0,0,0,0,0,0,0,0,0,0,0,0,0,0,0,0,0,0,0,0,0,0,0,0,0,0,0,0,0,0,0,0.3846,0.3845,0,0.3794,0.3793,0.3793,0.3803,0.3804,0.3805,0.3806,0.3816,0.3816,0.3815,0,0,0,0,0,0,0,0,0,0,0,0,0,0.3785,0.3788,0.3846,0.3845,0.3844,0.3794,0.3793,0.3793,0.3803,0.3804,0.3805,0.3806,0.3816,0.3816,0.3815,0,0,0,0,0,0,0,0,0,0,0,0,0,0.3782,0.3788,0.3846,0.3842,0.3841,0.3794,0.3793,0.3793,0.3803,0.3804,0.3805,0.3807,0.3817,0.3816,0.3815,0.3787,0,0,0.3813,0.3813,0,0,0,0,0,0,0,0,0.3783,0.3785,0.3844,0.3842,0.3841,0.3805,0.3775,0.3793,0.3803,0.3819,0.3806,0.3807,0.3816,0.3816,0.3805,0.3787,0.3788,0.3813,0.3813,0.3812,0.3812,0,0,0,0,0,0,0,0.3783,0.3786,0.3827,0.3843,0.3841,0.3785,0.3788,0.3778,0.3814,0.3818,0.3818,0.3809,0.3817,0.3805,0.3805,0.3788,0.3813,0.3812,0.3812,0.3812,0.3925,0.3928,0,0,0,0,0,0,0.3794,0.3788,0.3829,0.3825,0.3812,0.3786,0.3789,0.3817,0.3813,0.3812,0.3808,0.381,0.3806,0.3806,0.3806,0.3927,0.3812,0.3812,0.3811,0.3921,0.3926,0.3929,0,0,0,0,0,0,0.3794,0.38,0.3831,0.3801,0.3801,0.3787,0.3817,0.3815,0.385,0.3805,0.3806,0.385,0.3807,0.3807,0.3841,0.3922,0.3811,0.3811,0.3917,0.3923,0.3927,0.407,0,0,0,0,0,0,0.3793,0.3801,0.382,0.3804,0.3803,0.3857,0.3816,0.3813,0.3838,0.3841,0.384,0.3839,0.3808,0.3842,0.384,0.3919,0.381,0.3913,0.392,0.3926,0.4061,0.4079,0.4095,0,0,0,0,0,0.3792,0.379,0.3823,0.3826,0.3834,0.3859,0.3856,0.3846,0.384,0.3878,0.3867,0.3842,0.3883,0.3843,0.384,0.3921,0.391,0.3918,0.3925,0.4053,0.4076,0.4095,0,0,0,0,0,0,0.3721,0.3791,0.3826,0.3835,0.3882,0.3862,0.3847,0.3876,0.3893,0.389,0.3863,0.3863,0.3947,0.3903,0.3861,0.3976,0.3902,0.3909,0.4,0.4021,0.4038,0.4055,0.381,0,0,0,0,0,0.3732,0.3815,0.3834,0.3871,0.386,0.3875,0.3878,0.3906,0.3911,0.3921,0.3899,0.3903,0.3967,0.3968,0.3993,0.402,0.3996,0.4079,0.4096,0.4111,0.4126,0.4161,0.4182,0.3955,0.3955,0.3954,0,0,0.374,0.3773,0.383,0.3873,0.3872,0.3908,0.3881,0.3911,0.3975,0.3917,0.3945,0.3971,0.3997,0.406,0.409,0.403,0.4163,0.412,0.4133,0.414,0.4171,0.4193,0.4212,0.396,0.3959,0.3958,0,0,0.3751,0.3793,0.3841,0.3897,0.3933,0.3943,0.3974,0.3973,0.3994,0.4058,0.4054,0.412,0.4142,0.4179,0.4214,0.4334,0.4278,0.4349,0.4417,0.4451,0.447,0.4486,0.4478,0.4492,0.4326,0.4326,0.4326,0,0.3743,0.3816,0.3856,0.3898,0.3919,0.3974,0.3999,0.4056,0.4088,0.4097,0.4096,0.4196,0.4218,0.4337,0.4392,0.4379,0.436,0.4335,0.4472,0.4488,0.4502,0.449,0.4503,0.4334,0.4333,0.4332,0.4331,0,0.3793,0.3863,0.3872,0.3979,0.4002,0.4056,0.4109,0.4162,0.419,0.4231,0.434,0.4375,0.4427,0.4475,0.4481,0.4603,0.4548,0.4514,0.4416,0.4533,0.4513,0.4525,0.4345,0.4342,0.434,0.4338,0,0,0.3743,0.3887,0.3894,0.3966,0.4052,0.4085,0.4172,0.4242,0.4316,0.4389,0.4455,0.4605,0.4607,0.4647,0.4664,0.4705,0.4807,0.4652,0.465,0.4636,0.485,0.475,0.4752,0.4785,0.4789,0.4791,0.4793,0,0.3764,0.3859,0.3907,0.4032,0.4072,0.4152,0.4229,0.4327,0.4391,0.4475,0.4572,0.4661,0.4682,0.4719,0.4781,0.4809,0.4845,0.4807,0.4745,0.4743,0.4635,0.4766,0.4402,0.4368,0.4803,0.4805,0.4806,0,0.3773,0.3847,0.3913,0.4074,0.408,0.4172,0.4273,0.4357,0.4502,0.4547,0.4653,0.4714,0.4838,0.4826,0.4933,0.4899,0.4899,0.4909,0.4907,0.4773,0.4667,0.4324,0.4372,0.4825,0.4823,0.4822,0.4821,0,0.3706,0.3855,0.3901,0.3969,0.4128,0.4176,0.4257,0.4374,0.4435,0.4585,0.4652,0.4782,0.486,0.491,0.4954,0.4942,0.5032,0.4998,0.4907,0.4896,0.4555,0.4511,0.5071,0.5071,0.5071,0.5071,0.5071,0,0.3702,0.3777,0.3909,0.397,0.4043,0.4155,0.4227,0.4338,0.4483,0.4537,0.4682,0.4761,0.4891,0.4955,0.497,0.4975,0.5037,0.4954,0.4913,0.4594,0.4556,0.4921,0.4904,0.5071,0.5071,0.5071,0.5071,0,0.3631,0.3724,0.3828,0.3985,0.4015,0.4075,0.4209,0.4281,0.4435,0.4517,0.4567,0.477,0.4838,0.4927,0.4994,0.4984,0.4991,0.4963,0.4571,0.4487,0.4825,0.4815,0.488,0.4877,0.4874,0.4872,0.487,0,0.3624,0.365,0.378,0.3798,0.3871,0.3963,0.3999,0.4203,0.4266,0.4485,0.4516,0.4678,0.4732,0.4829,0.48,0.4794,0.4909,0.447,0.4416,0.4863,0.4817,0.4811,0.4805,0.4003,0.3994,0.3987,0.3982,0,0.3579,0.3601,0.3642,0.3661,0.3719,0.3763,0.3865,0.3931,0.412,0.4231,0.4341,0.4431,0.4542,0.4402,0.4447,0.4397,0.445,0.4328,0.4887,0.4129,0.4043,0.3995,0.4017,0.3918,0.3924,0.3929,0.3932,0.3935,0.3492,0.3488,0.3486,0.3507,0.3536,0.3538,0.3557,0.3643,0.3722,0.3813,0.4012,0.4003,0.4097,0.3975,0.3871,0.3804,0.4121,0.3966,0.3985,0.4012,0.3932,0.3849,0.3669,0.3674,0.3678,0.3681,0.3685,0,0.3316,0.3313,0.3327,0.3319,0.3257,0.3363,0.3415,0.3345,0.3341,0.345,0.3496,0.3231,0.3221,0.3307,0.3125,0.3184,0.3121,0.3058,0.2945,0.3013,0.3072,0.2939,0.2415,0.241,0.2406,0.2403,0,0,0.318,0.3114,0.3137,0.3017,0.3025,0.2888,0.2903,0.2826,0.2832,0.2729,0.2723,0.2974,0.3184,0.271,0.2708,0.2525,0.2727,0.2423,0.3449,0.338,0.3432,0.3618,0.3495,0,0,0,0,0]},{"header":{"parameterUnit":"m.s-1","parameterCategory":2,"la1":30.2991,"la2":30.254,"lo1":-89.0895,"lo2":-89.0444,"dy":0.0017,"dx":0.0017,"nx":28,"ny":28,"refTime":"2024-12-11T09:00:00:Z","depth":"2","parameterNumber":3,"parameterNumberName":"V-component_of_CURRENTS"},"data":[0,0,0,0,0,0,0,0,0,0,0,0,0,0,0,0,0,0,0,0,0,0,0,0,0,0,0,0,0,0,0,0,0,0,0,0,0,0,0,0,0,0,0,0,0,0,0,0,0,0,0,0,0,0,0,0,0,0,-0.0006,-0.0006,0,-0.0019,-0.0019,-0.002,-0.0083,-0.0084,-0.0086,-0.0087,-0.0267,-0.027,-0.0273,0,0,0,0,0,0,0,0,0,0,0,0,0,0.0033,0.0032,-0.0006,-0.0006,-0.0006,-0.0019,-0.0019,-0.002,-0.0083,-0.0085,-0.0086,-0.0088,-0.0265,-0.027,-0.0274,0,0,0,0,0,0,0,0,0,0,0,0,0,0.0017,0.0032,-0.0006,-0.0038,-0.0041,-0.0019,-0.0019,-0.002,-0.0082,-0.0085,-0.0087,-0.0089,-0.0264,-0.0269,-0.0274,-0.0263,0,0,-0.029,-0.0292,0,0,0,0,0,0,0,0,0.0018,0.0015,-0.0033,-0.0036,-0.0039,-0.0051,-0.0072,-0.0109,-0.0082,-0.0068,-0.0087,-0.009,-0.0208,-0.0218,-0.0214,-0.0272,-0.028,-0.029,-0.0294,-0.0296,-0.0297,0,0,0,0,0,0,0,0.0019,0.0016,-0.0012,-0.0033,-0.0037,-0.0029,-0.0035,-0.0078,-0.0129,-0.0069,-0.0073,-0.0073,-0.0211,-0.0209,-0.0219,-0.0282,-0.029,-0.0295,-0.0298,-0.03,-0.041,-0.041,0,0,0,0,0,0,0.0021,0.0017,-0.0011,-0.0012,-0.0015,-0.0028,-0.0034,-0.0046,-0.0125,-0.0138,-0.0071,-0.0076,-0.0199,-0.0213,-0.0226,-0.026,-0.0296,-0.0301,-0.0304,-0.041,-0.041,-0.0409,0,0,0,0,0,0,0.0021,0.0018,-0.0011,0.0003,0.0,-0.0027,-0.0039,-0.0045,-0.0073,-0.0125,-0.0142,-0.0097,-0.0201,-0.0219,-0.0282,-0.0267,-0.0303,-0.0308,-0.041,-0.041,-0.041,-0.0303,0,0,0,0,0,0,0.0022,0.0018,0.0012,0.0003,-0.0001,-0.0016,-0.0037,-0.0044,-0.0067,-0.0074,-0.0152,-0.0168,-0.0204,-0.0274,-0.0288,-0.0275,-0.0312,-0.041,-0.041,-0.041,-0.0307,-0.0299,-0.0293,0,0,0,0,0,0.0024,0.0065,0.0011,0.0008,-0.001,-0.0016,-0.0017,-0.0043,-0.0066,-0.0077,-0.0128,-0.0168,-0.0281,-0.0278,-0.0294,-0.0282,-0.0411,-0.041,-0.041,-0.031,-0.0301,-0.0293,0,0,0,0,0,0,0.0117,0.0061,0.0003,0.003,-0.0018,-0.0027,-0.0001,-0.0052,-0.0094,-0.0104,-0.0169,-0.0188,-0.0244,-0.0279,-0.0274,-0.0314,-0.0351,-0.0354,-0.027,-0.0262,-0.0255,-0.0221,-0.0316,0,0,0,0,0,0.012,0.0091,0.0049,0.0049,0.0055,0.0008,0.0004,-0.0038,-0.0072,-0.0093,-0.0129,-0.0182,-0.0245,-0.0269,-0.0322,-0.0338,-0.0376,-0.0341,-0.0334,-0.0327,-0.0312,-0.0367,-0.0362,-0.0408,-0.0408,-0.0408,0,0,0.0142,0.0113,0.0091,0.0058,0.0045,0.0051,0.0002,-0.0006,-0.0019,-0.0106,-0.0099,-0.017,-0.0251,-0.0273,-0.0298,-0.0303,-0.0333,-0.0327,-0.032,-0.0308,-0.0366,-0.0361,-0.0357,-0.0408,-0.0408,-0.0408,0,0,0.0204,0.0168,0.0172,0.0136,0.0096,0.008,0.0067,0.0048,0.0032,-0.001,-0.0067,-0.0122,-0.0193,-0.0224,-0.0264,-0.0251,-0.0309,-0.0274,-0.0191,-0.0244,-0.0241,-0.0238,-0.0266,-0.0266,-0.025,-0.025,-0.025,0,0.0236,0.0224,0.0174,0.0179,0.0184,0.0094,0.0124,0.0092,0.004,0.0045,-0.0004,-0.0097,-0.0167,-0.0198,-0.0192,-0.0232,-0.0268,-0.0214,-0.0233,-0.0231,-0.023,-0.026,-0.0262,-0.0245,-0.0246,-0.0246,-0.0247,0,0.0288,0.0271,0.0299,0.0254,0.0258,0.026,0.0224,0.0209,0.0171,0.0135,0.009,0.0001,-0.0049,-0.0083,-0.0141,-0.0154,-0.0184,-0.0232,-0.0247,-0.0218,-0.0252,-0.0256,-0.0238,-0.024,-0.0241,-0.0242,0,0,0.0379,0.0338,0.034,0.0333,0.0296,0.0313,0.0318,0.0315,0.0318,0.0242,0.0259,0.0147,0.0099,0.0052,-0.0018,-0.0059,-0.0087,-0.0127,-0.0133,-0.014,-0.0188,-0.0215,-0.0223,-0.0142,-0.0143,-0.0143,-0.0208,0,0.043,0.0466,0.0438,0.0466,0.0499,0.044,0.046,0.0427,0.0392,0.0384,0.0281,0.0245,0.015,0.0121,0.0065,-0.0057,-0.0095,-0.0064,-0.0227,-0.0231,-0.0248,-0.0228,-0.019,-0.0247,-0.0212,-0.0213,-0.0214,0,0.0493,0.0507,0.0576,0.0575,0.0596,0.0593,0.063,0.0622,0.0571,0.054,0.0483,0.0401,0.0333,0.0232,0.0069,0.0092,-0.0032,-0.0131,-0.0137,-0.02,-0.0266,-0.0276,-0.0256,-0.0221,-0.0221,-0.022,-0.022,0,0.0595,0.0604,0.0676,0.0667,0.0666,0.069,0.0685,0.0669,0.07,0.0638,0.0646,0.0531,0.048,0.0311,0.011,0.0087,-0.0079,-0.0139,-0.0274,-0.0277,-0.0295,-0.0299,-0.0256,-0.0256,-0.0256,-0.0256,-0.0256,0,0.0669,0.0702,0.071,0.0729,0.0803,0.0777,0.0845,0.0809,0.0807,0.0861,0.0733,0.0741,0.0492,0.0371,0.0166,-0.0052,-0.0037,-0.0249,-0.0296,-0.0257,-0.0256,-0.0281,-0.0283,-0.0258,-0.0258,-0.0257,-0.0257,0,0.075,0.0752,0.0808,0.0829,0.0846,0.089,0.0932,0.0976,0.0951,0.1015,0.1009,0.0904,0.0741,0.0498,0.0228,0.0037,-0.0184,-0.0271,-0.0194,-0.0231,-0.0358,-0.0353,-0.0416,-0.0418,-0.0419,-0.042,-0.0421,0,0.0778,0.0829,0.0893,0.0938,0.094,0.0998,0.1051,0.1042,0.1106,0.1125,0.1175,0.1047,0.0986,0.0591,0.0227,-0.0113,-0.018,-0.032,-0.0369,-0.0335,-0.0374,-0.0368,-0.0363,-0.0345,-0.0345,-0.0345,-0.0345,0,0.0834,0.0871,0.093,0.1036,0.1096,0.118,0.1241,0.1319,0.1344,0.1403,0.1448,0.1403,0.1045,0.0706,0.0228,-0.0015,-0.0265,-0.0335,-0.0321,-0.0312,-0.0274,-0.0311,-0.0306,-0.0347,-0.0347,-0.0347,-0.0347,-0.0347,0.0872,0.0929,0.1026,0.1127,0.1214,0.1331,0.1413,0.1511,0.1629,0.1722,0.1658,0.1595,0.121,0.0612,0.0188,-0.0269,-0.0254,-0.0423,-0.042,-0.0417,-0.0399,-0.0366,-0.0451,-0.0452,-0.0452,-0.0452,-0.0453,0,0.0912,0.0996,0.1102,0.1223,0.1341,0.1372,0.1537,0.1641,0.1797,0.1865,0.1895,0.1546,0.1146,0.0689,0.0029,-0.0362,-0.0396,-0.0504,-0.0453,-0.0448,-0.0444,-0.0426,-0.0487,-0.0488,-0.0489,-0.049,0,0,0.0948,0.1053,0.1119,0.1307,0.1403,0.1573,0.1674,0.1835,0.1932,0.201,0.1969,0.1854,0.1303,0.0824,0.0286,-0.01,-0.0189,-0.0186,-0.0115,0.0015,0.0023,-0.0354,-0.0315,0,0,0,0,0]}],[{"header":{"parameterUnit":"m.s-1","parameterCategory":2,"la1":30.2991,"la2":30.254,"lo1":-89.0895,"lo2":-89.0444,"dy":0.0017,"dx":0.0017,"nx":28,"ny":28,"refTime":"2024-12-11T09:00:00:Z","depth":"4","parameterNumber":2,"parameterNumberName":"U-component_of_CURRENTS"},"data":[0,0,0,0,0,0,0,0,0,0,0,0,0,0,0,0,0,0,0,0,0,0,0,0,0,0,0,0,0,0,0,0,0,0,0,0,0,0,0,0,0,0,0,0,0,0,0,0,0,0,0,0,0,0,0,0,0,0,0.1715,0.1716,0,0.1784,0.1784,0.1784,0.1861,0.1864,0.1866,0.1868,0.1999,0.2001,0.2002,0,0,0,0,0,0,0,0,0,0,0,0,0,0.156,0.1562,0.1715,0.1717,0.1718,0.1784,0.1784,0.1784,0.1861,0.1864,0.1866,0.1869,0.1999,0.2001,0.2003,0,0,0,0,0,0,0,0,0,0,0,0,0,0.1618,0.1563,0.1714,0.1772,0.1779,0.1784,0.1784,0.1784,0.1861,0.1864,0.1867,0.187,0.1998,0.2001,0.2003,0.1955,0,0,0.201,0.2011,0,0,0,0,0,0,0,0,0.1615,0.1622,0.1762,0.1768,0.1776,0.1826,0.1778,0.1848,0.186,0.1819,0.1868,0.1871,0.1952,0.1958,0.1949,0.1961,0.1967,0.201,0.2012,0.2013,0.2013,0,0,0,0,0,0,0,0.1611,0.162,0.1732,0.1764,0.1772,0.1765,0.1776,0.179,0.186,0.1823,0.1831,0.1854,0.1955,0.1946,0.1953,0.1969,0.201,0.2012,0.2014,0.2015,0.2168,0.2171,0,0,0,0,0,0,0.1624,0.1616,0.173,0.1735,0.1713,0.1766,0.1778,0.1799,0.1859,0.1874,0.1851,0.1857,0.194,0.195,0.1958,0.2122,0.2013,0.2015,0.2016,0.2166,0.2169,0.2172,0,0,0,0,0,0,0.1621,0.1633,0.1727,0.1685,0.1698,0.1767,0.1788,0.1799,0.1858,0.1882,0.1896,0.1909,0.1943,0.1955,0.2036,0.212,0.2016,0.2018,0.2162,0.2167,0.217,0.2312,0,0,0,0,0,0,0.1615,0.1631,0.1671,0.1686,0.1702,0.1779,0.1787,0.1798,0.1868,0.1878,0.1935,0.1946,0.1947,0.2033,0.2039,0.2121,0.202,0.2159,0.2164,0.2169,0.2304,0.232,0.2334,0,0,0,0,0,0.1609,0.1647,0.1672,0.1688,0.1747,0.1782,0.1789,0.1839,0.1869,0.1902,0.1949,0.1948,0.207,0.2037,0.2043,0.2128,0.2157,0.2163,0.2169,0.2297,0.2317,0.2334,0,0,0,0,0,0,0.1597,0.166,0.1688,0.1744,0.1786,0.1801,0.1842,0.187,0.1927,0.1956,0.1972,0.1987,0.2082,0.208,0.2044,0.2186,0.2116,0.2124,0.2212,0.2231,0.2245,0.2206,0.2022,0,0,0,0,0,0.1613,0.1664,0.171,0.176,0.1785,0.1821,0.1852,0.1888,0.1931,0.1961,0.2,0.2048,0.2095,0.2148,0.2165,0.2246,0.2239,0.2307,0.2322,0.2335,0.2307,0.2379,0.2398,0.2192,0.2191,0.2191,0,0,0.1623,0.1665,0.1697,0.1763,0.1794,0.184,0.1847,0.1912,0.1971,0.1964,0.2065,0.2091,0.2121,0.2209,0.2256,0.2237,0.2399,0.2343,0.2354,0.2318,0.2387,0.2407,0.2425,0.2196,0.2195,0.2194,0,0,0.1644,0.1705,0.1749,0.1789,0.1864,0.1889,0.1925,0.1976,0.2032,0.2117,0.2133,0.2215,0.2283,0.2328,0.2358,0.2467,0.2458,0.249,0.2565,0.2637,0.2654,0.2669,0.2722,0.2741,0.2523,0.2523,0.2524,0,0.1669,0.1718,0.1767,0.1811,0.1862,0.1922,0.1975,0.2028,0.2107,0.2159,0.2178,0.2288,0.2337,0.2438,0.2491,0.2505,0.2526,0.25,0.2658,0.2672,0.2685,0.2735,0.2753,0.2531,0.253,0.2529,0.2529,0,0.1695,0.1761,0.179,0.1874,0.1931,0.199,0.207,0.2153,0.2232,0.2274,0.2392,0.2439,0.2521,0.2559,0.2568,0.269,0.267,0.2652,0.2611,0.2714,0.2761,0.2777,0.2542,0.2539,0.2537,0.2535,0,0,0.1692,0.1795,0.1812,0.1866,0.1978,0.2022,0.2146,0.2257,0.2343,0.2429,0.2529,0.2631,0.2661,0.2693,0.2724,0.2782,0.2932,0.277,0.2771,0.2821,0.3085,0.2898,0.2898,0.295,0.2953,0.2955,0.3095,0,0.1713,0.1798,0.1854,0.1961,0.2015,0.2122,0.2225,0.2339,0.2438,0.2546,0.2623,0.2717,0.2717,0.2784,0.2851,0.2904,0.2975,0.2894,0.2976,0.2977,0.2797,0.291,0.2964,0.3107,0.3111,0.3113,0.3115,0,0.1722,0.1782,0.1882,0.202,0.2057,0.2142,0.2324,0.2423,0.2581,0.2666,0.2771,0.281,0.2948,0.2912,0.3067,0.302,0.3066,0.3077,0.3084,0.2853,0.2818,0.2973,0.3144,0.3142,0.314,0.3138,0.3136,0,0.1688,0.181,0.1898,0.1942,0.2098,0.2196,0.2304,0.2467,0.2574,0.2747,0.2835,0.2955,0.3069,0.3123,0.3206,0.3161,0.3325,0.3282,0.3139,0.3128,0.319,0.3172,0.3361,0.3361,0.3361,0.336,0.336,0,0.1683,0.176,0.1897,0.1945,0.2085,0.2194,0.2355,0.2492,0.2659,0.277,0.2902,0.2991,0.3128,0.3233,0.3256,0.3265,0.3404,0.3147,0.315,0.3251,0.3239,0.3204,0.3184,0.3366,0.3365,0.3364,0.3363,0,0.1643,0.173,0.1837,0.2002,0.2079,0.2182,0.2407,0.2487,0.268,0.2832,0.2901,0.3094,0.3225,0.3313,0.3429,0.3342,0.3352,0.3315,0.3439,0.3447,0.3086,0.3072,0.3151,0.3145,0.314,0.3137,0.3133,0,0.1627,0.168,0.1868,0.194,0.2033,0.2197,0.2298,0.2505,0.2581,0.2857,0.2902,0.3105,0.3206,0.3222,0.3332,0.3365,0.3314,0.33,0.3139,0.3069,0.3066,0.3059,0.3052,0.3126,0.3125,0.3124,0.3122,0,0.1596,0.1679,0.1759,0.1895,0.2015,0.2139,0.2295,0.2338,0.2548,0.2745,0.2834,0.2895,0.3034,0.31,0.3169,0.3173,0.3289,0.325,0.3257,0.3106,0.304,0.304,0.3038,0.3106,0.3109,0.311,0.3111,0,0.1581,0.1621,0.172,0.1825,0.1958,0.2018,0.2124,0.2204,0.2318,0.2581,0.2614,0.2817,0.3006,0.3006,0.3066,0.3066,0.2989,0.2855,0.2881,0.29,0.2749,0.2625,0.2571,0,0,0,0,0,0.1551,0.1568,0.1641,0.1726,0.1828,0.1908,0.208,0.2165,0.2354,0.2347,0.2471,0.2575,0.2662,0.2772,0.2718,0.2953,0.3004,0.2876,0.2863,0.3017,0.3036,0.288,0,0,0,0,0,0,0.1529,0.1598,0.159,0.1591,0.1618,0.1721,0.1815,0.1952,0.1954,0.2165,0.2226,0.2404,0.253,0.2662,0.2663,0.2697,0.263,0.3013,0.3006,0.3007,0.3024,0.3039,0.2884,0,0,0,0,0]},{"header":{"parameterUnit":"m.s-1","parameterCategory":2,"la1":30.2991,"la2":30.254,"lo1":-89.0895,"lo2":-89.0444,"dy":0.0017,"dx":0.0017,"nx":28,"ny":28,"refTime":"2024-12-11T09:00:00:Z","depth":"4","parameterNumber":3,"parameterNumberName":"V-component_of_CURRENTS"},"data":[0,0,0,0,0,0,0,0,0,0,0,0,0,0,0,0,0,0,0,0,0,0,0,0,0,0,0,0,0,0,0,0,0,0,0,0,0,0,0,0,0,0,0,0,0,0,0,0,0,0,0,0,0,0,0,0,0,0,0.0417,0.0416,0,0.0374,0.0374,0.0373,0.0358,0.0357,0.0357,0.0357,0.0265,0.0263,0.0261,0,0,0,0,0,0,0,0,0,0,0,0,0,0.0488,0.0488,0.0417,0.0416,0.0415,0.0374,0.0374,0.0373,0.0358,0.0357,0.0357,0.0356,0.0266,0.0263,0.0261,0,0,0,0,0,0,0,0,0,0,0,0,0,0.0457,0.0487,0.0417,0.0398,0.0396,0.0374,0.0374,0.0373,0.0358,0.0357,0.0357,0.0356,0.0267,0.0263,0.026,0.025,0,0,0.025,0.0249,0,0,0,0,0,0,0,0,0.0459,0.0455,0.0402,0.04,0.0397,0.0366,0.0365,0.0328,0.0358,0.0377,0.0357,0.0356,0.0291,0.0286,0.0287,0.0246,0.0242,0.025,0.0248,0.0247,0.0246,0,0,0,0,0,0,0,0.0461,0.0457,0.0405,0.0401,0.0398,0.0393,0.0388,0.0359,0.0341,0.0376,0.0373,0.0361,0.029,0.029,0.0284,0.024,0.025,0.0247,0.0245,0.0244,0.0159,0.0158,0,0,0,0,0,0,0.0457,0.0459,0.0406,0.0403,0.0422,0.0391,0.0387,0.0381,0.0342,0.0334,0.0361,0.036,0.0296,0.0288,0.0281,0.0257,0.0247,0.0244,0.0242,0.0159,0.0158,0.0158,0,0,0,0,0,0,0.0459,0.0453,0.0408,0.0426,0.0419,0.039,0.0384,0.038,0.0373,0.033,0.0323,0.0357,0.0295,0.0285,0.0256,0.0254,0.0242,0.0239,0.0159,0.0159,0.0158,0.0215,0,0,0,0,0,0,0.0461,0.0454,0.0453,0.0426,0.0418,0.039,0.0383,0.0379,0.0364,0.0362,0.0324,0.0316,0.0294,0.0261,0.0253,0.0249,0.0237,0.016,0.0159,0.0158,0.0214,0.0217,0.0219,0,0,0,0,0,0.0464,0.0461,0.0453,0.0446,0.0415,0.039,0.0386,0.0367,0.0364,0.0361,0.034,0.0317,0.0251,0.0259,0.0249,0.0244,0.016,0.0159,0.0158,0.0212,0.0216,0.0219,0,0,0,0,0,0,0.049,0.0457,0.0449,0.0435,0.0412,0.0385,0.0386,0.0367,0.035,0.0355,0.0316,0.0306,0.028,0.0251,0.0261,0.0215,0.0199,0.0197,0.0244,0.0246,0.0249,0.0265,0.0234,0,0,0,0,0,0.0494,0.0484,0.0451,0.044,0.0437,0.0413,0.0402,0.0388,0.0365,0.0358,0.0328,0.0298,0.027,0.0251,0.0224,0.0199,0.0162,0.0186,0.0189,0.0192,0.0196,0.0138,0.0136,0.0156,0.0156,0.0156,0,0,0.0504,0.048,0.0477,0.0445,0.0437,0.0438,0.0407,0.0396,0.0391,0.035,0.0341,0.0308,0.0266,0.0245,0.0229,0.0219,0.0167,0.0191,0.0194,0.0197,0.0137,0.0135,0.0134,0.0155,0.0155,0.0155,0,0,0.052,0.0501,0.0505,0.0493,0.047,0.0454,0.0449,0.0423,0.0411,0.0388,0.0363,0.0328,0.0282,0.0256,0.0235,0.0231,0.0186,0.0219,0.0242,0.0186,0.0184,0.0182,0.0137,0.0131,0.0217,0.0217,0.0217,0,0.0532,0.0536,0.0502,0.0507,0.0507,0.0464,0.0481,0.0458,0.042,0.041,0.0389,0.0324,0.0287,0.0259,0.0261,0.0238,0.0204,0.0238,0.0191,0.0188,0.0185,0.0139,0.0131,0.022,0.0219,0.0219,0.0219,0,0.0558,0.0566,0.0572,0.0568,0.0556,0.0564,0.0531,0.0514,0.0486,0.0457,0.0418,0.0364,0.0327,0.0302,0.0281,0.0245,0.0227,0.0205,0.0188,0.0187,0.0138,0.0129,0.0223,0.0222,0.0222,0.0221,0,0,0.058,0.0591,0.0598,0.0616,0.0597,0.0592,0.0583,0.0562,0.0559,0.0499,0.0488,0.0421,0.0388,0.0363,0.0322,0.0266,0.0214,0.0233,0.0229,0.0198,0.0096,0.0096,0.0086,0.0185,0.0184,0.0183,0.0073,0,0.062,0.0658,0.0645,0.0682,0.0705,0.0671,0.0664,0.0632,0.0597,0.0572,0.0495,0.0471,0.0413,0.0403,0.0335,0.0252,0.0191,0.0246,0.0093,0.0089,0.0097,0.0076,0.0178,0.0066,0.0063,0.0062,0.0061,0,0.0658,0.0678,0.073,0.0749,0.0757,0.0767,0.0759,0.0746,0.0692,0.0663,0.0612,0.056,0.0485,0.0434,0.0271,0.031,0.0212,0.013,0.0124,0.0099,0.0072,0.0063,0.0043,0.0045,0.0046,0.0047,0.0048,0,0.0697,0.0739,0.0786,0.0795,0.0802,0.0818,0.0818,0.0779,0.0784,0.0733,0.0731,0.0622,0.0584,0.0436,0.0277,0.0275,0.009,0.0064,-0.0036,-0.0037,-0.0028,-0.0024,-0.0061,-0.0061,-0.006,-0.006,-0.006,0,0.0738,0.0777,0.0815,0.084,0.0888,0.0873,0.0912,0.0885,0.0875,0.0885,0.0794,0.0777,0.0582,0.046,0.0298,0.0109,0.0102,-0.0035,-0.0068,-0.0001,0.0006,-0.0034,-0.003,-0.0064,-0.0063,-0.0062,-0.0062,0,0.0758,0.0792,0.0845,0.0887,0.0909,0.0938,0.0992,0.1012,0.0993,0.1007,0.1002,0.0895,0.0732,0.053,0.0291,0.0152,-0.0038,-0.0106,-0.0008,-0.0033,-0.0134,-0.0125,-0.023,-0.0231,-0.0232,-0.0232,-0.0233,0,0.0766,0.0798,0.088,0.0929,0.0957,0.1015,0.1052,0.1063,0.1093,0.1074,0.1083,0.096,0.0857,0.0532,0.0304,-0.0008,-0.0057,-0.0159,-0.0164,-0.0131,-0.0153,-0.0143,-0.0134,-0.0234,-0.0234,-0.0235,-0.0235,0,0.077,0.0807,0.0853,0.0961,0.103,0.1102,0.1168,0.1202,0.1205,0.1202,0.115,0.0989,0.0806,0.0544,0.0306,0.0078,-0.0096,-0.0169,-0.0169,-0.0175,-0.0138,-0.0157,-0.0147,-0.0238,-0.0237,-0.0237,-0.0237,0,0.077,0.0806,0.0888,0.0977,0.1072,0.116,0.1196,0.1234,0.1259,0.1238,0.1218,0.1023,0.091,0.0588,0.0366,0.0146,0.008,-0.0004,-0.0014,-0.0014,0.0076,0.0157,0.0116,0,0,0,0,0,0.0767,0.0819,0.0903,0.1007,0.1104,0.117,0.1254,0.1281,0.1298,0.127,0.1249,0.1079,0.0761,0.0628,0.0409,0.033,0.0031,0.0062,-0.0075,-0.0254,-0.025,-0.0182,0,0,0,0,0,0,0.0766,0.0846,0.0894,0.1015,0.1095,0.1204,0.1266,0.1286,0.1272,0.126,0.1102,0.1017,0.0714,0.0893,0.0406,0.0339,0.0218,-0.0084,-0.0089,-0.0256,-0.0252,-0.025,-0.0179,0,0,0,0,0]}]]